DW2770 Cefalu IT current weather conditions

sailwx.info

Wind from 292 at 9 knots gusting 11

Air temperature 16.1° C
Dewpoint 10.4° C

Last reported at 2015-Apr-01 13:47 UTC.
Time now 2015-Apr-01 14:33 UTC

Location: N 38°02' E 014°02'.
View on Google Maps.

See reports from other nearby stations

  
Tides and Currents Weather Stations Pressure Air Temp Water Temp Dewpoint Dewpoint Depression Visibility Wind Speed Wind Dir Waves Ship Positions
date/time (UTC)wind fromknots sea level pressurealtimeterstation pressurevisibilityair tempwater tempwave heightnotes
2015-Apr-01 13:47 292 9 gusting 11 16.1
2015-Apr-01 13:36 225 9 gusting 17 16.1
2015-Apr-01 13:26 270 16 gusting 17 16.7
2015-Apr-01 13:16 292 6 gusting 13 16.7
2015-Apr-01 13:06 248 6 gusting 8 17.2
2015-Apr-01 12:56 259 7 gusting 12 17.2
2015-Apr-01 12:46 292 5 gusting 11 17.2
2015-Apr-01 12:36 202 3 gusting 7 17.2
2015-Apr-01 12:26 248 6 gusting 12 16.7
2015-Apr-01 12:17 202 4 gusting 6 17.2
2015-Apr-01 12:06 180 5 gusting 7 17.2
2015-Apr-01 11:56 270 6 gusting 7 17.2
2015-Apr-01 11:46 248 6 gusting 8 17.2
2015-Apr-01 11:36 225 6 gusting 10 17.2
2015-Apr-01 11:26 271 6 gusting 13 17.2
2015-Apr-01 11:17 248 6 gusting 10 17.2
2015-Apr-01 11:07 225 7 gusting 11 17.2
2015-Apr-01 10:57 280 10 gusting 11 17.2
2015-Apr-01 10:47 292 6 gusting 13 16.7
2015-Apr-01 10:37 248 5 gusting 13 16.7
2015-Apr-01 10:26 251 9 gusting 11 17.2
2015-Apr-01 10:17 248 8 gusting 11 16.7
2015-Apr-01 10:07 315 6 gusting 13 16.7
2015-Apr-01 09:57 248 8 gusting 12 16.7
2015-Apr-01 09:47 292 9 gusting 15 16.7
2015-Apr-01 09:37 270 8 gusting 18 17.2
2015-Apr-01 09:27 225 1 gusting 10 17.2
2015-Apr-01 09:17 248 4 gusting 14 17.2
2015-Apr-01 09:07 202 10 gusting 11 17.2
2015-Apr-01 08:57 242 1 gusting 10 17.2
2015-Apr-01 08:47 225 8 gusting 10 17.2
2015-Apr-01 08:37 315 6 gusting 13 17.2
2015-Apr-01 08:27 277 7 gusting 13 17.2
2015-Apr-01 08:17 270 4 gusting 11 17.8
2015-Apr-01 08:06 248 6 gusting 6 17.8
2015-Apr-01 07:56 270 6 gusting 6 17.2
2015-Apr-01 07:47 158 8 gusting 11 17.2
2015-Apr-01 07:36 202 6 gusting 10 17.2
2015-Apr-01 07:27 239 2 gusting 11 17.2
2015-Apr-01 07:17 248 10 gusting 11 17.2
2015-Apr-01 07:07 225 7 gusting 11 17.2
2015-Apr-01 06:57 255 10 gusting 10 17.2
2015-Apr-01 06:46 225 7 gusting 13 17.2
2015-Apr-01 06:37 225 12 gusting 13 17.2
2015-Apr-01 06:27 231 11 gusting 13 17.2
2015-Apr-01 06:16 202 10 gusting 13 17.2
2015-Apr-01 06:06 225 5 gusting 13 17.8
2015-Apr-01 05:56 241 10 gusting 15 17.8
2015-Apr-01 05:47 247 13 gusting 15 18.3
2015-Apr-01 05:36 248 13 gusting 19 18.3
2015-Apr-01 05:27 248 14 gusting 18 18.3
2015-Apr-01 05:16 238 13 gusting 18 18.3
2015-Apr-01 05:07 202 16 gusting 18 18.3
2015-Apr-01 04:56 225 13 gusting 13 18.3
2015-Apr-01 04:47 228 12 gusting 18 18.3
2015-Apr-01 04:37 225 13 gusting 18 18.3
2015-Apr-01 04:26 225 7 gusting 14 17.8
2015-Apr-01 04:17 225 8 gusting 12 16.7
2015-Apr-01 04:06 225 11 gusting 12 16.1
2015-Apr-01 03:56 225 7 gusting 12 16.1
2015-Apr-01 03:47 229 8 gusting 12 16.1
2015-Apr-01 03:37 225 8 gusting 11 16.1
2015-Apr-01 03:26 225 10 gusting 11 16.7
2015-Apr-01 03:16 225 7 gusting 10 16.7
2015-Apr-01 03:06 248 6 gusting 6 16.7
2015-Apr-01 02:56 289 6 gusting 10 16.7
2015-Apr-01 02:46 225 7 gusting 13 17.2
2015-Apr-01 02:36 225 10 gusting 13 17.2
2015-Apr-01 02:27 225 10 gusting 14 17.2
2015-Apr-01 02:16 245 11 gusting 14 17.2
2015-Apr-01 02:06 248 10 gusting 17 17.8
2015-Apr-01 01:56 206 15 gusting 17 17.8
2015-Apr-01 01:46 234 9 gusting 17 17.8
2015-Apr-01 01:37 225 12 gusting 15 17.2
2015-Apr-01 01:26 202 9 gusting 10 17.8
2015-Apr-01 01:17 220 8 gusting 14 17.8
2015-Apr-01 01:07 248 11 gusting 14 17.2
2015-Apr-01 00:57 270 5 gusting 5 15.0
2015-Apr-01 00:46 248 2 gusting 5 14.4
2015-Apr-01 00:36 225 1 gusting 5 13.9
2015-Apr-01 00:26 225 4 gusting 5 13.9
2015-Apr-01 00:16 234 5 gusting 5 13.9
2015-Apr-01 00:06 225 1 gusting 2 13.9
2015-Mar-31 23:56 045 14.4
2015-Mar-31 23:47 153 15.0
2015-Mar-31 23:37 045 0 gusting 6 15.6
2015-Mar-31 23:26 048 0 gusting 6 16.1
2015-Mar-31 23:16 240 6 gusting 10 17.2
2015-Mar-31 23:07 248 4 gusting 10 13.3
2015-Mar-31 22:56 068 12.8
2015-Mar-31 22:46 141 12.8
2015-Mar-31 22:36 202 0 gusting 1 12.8
2015-Mar-31 22:26 180 12.2
2015-Mar-31 22:16 202 12.8
2015-Mar-31 22:06 202 12.8
2015-Mar-31 21:56 180 12.8
2015-Mar-31 21:46 180 12.8
2015-Mar-31 21:36 180 13.3
2015-Mar-31 21:26 158 0 gusting 0 13.3
2015-Mar-31 21:16 158 13.3
2015-Mar-31 21:06 090 13.3
2015-Mar-31 20:57 068 13.3
2015-Mar-31 20:47 202 1 gusting 2 13.3
2015-Mar-31 20:37 225 13.3
2015-Mar-31 20:27 225 0 gusting 1 13.3
2015-Mar-31 20:17 230 13.3
2015-Mar-31 20:07 248 1 gusting 4 13.3
2015-Mar-31 19:57 225 4 gusting 4 13.3
2015-Mar-31 19:46 202 1 gusting 2 13.9
2015-Mar-31 19:36 202 2 gusting 2 13.9
2015-Mar-31 19:26 270 13.9
2015-Mar-31 19:16 246 2 gusting 4 13.9
2015-Mar-31 19:07 225 1 gusting 1 13.9
2015-Mar-31 18:57 202 1 gusting 2 13.9
2015-Mar-31 18:47 068 13.9
2015-Mar-31 18:36 068 13.9
2015-Mar-31 18:27 090 13.9
2015-Mar-31 18:16 090 13.9
2015-Mar-31 18:07 090 13.9
2015-Mar-31 17:57 068 13.9
2015-Mar-31 17:47 090 14.4
2015-Mar-31 17:37 068 0 gusting 0 14.4
2015-Mar-31 17:27 068 14.4
2015-Mar-31 17:17 068 15.0
2015-Mar-31 17:07 045 0 gusting 1 15.0
2015-Mar-31 16:56 292 15.0
2015-Mar-31 16:46 030 15.0
2015-Mar-31 16:37 292 1 gusting 5 15.6
2015-Mar-31 16:27 225 4 gusting 5 15.6
2015-Mar-31 16:17 217 16.1
2015-Mar-31 16:07 292 16.1
2015-Mar-31 15:57 292 2 gusting 4 15.6
2015-Mar-31 15:47 274 4 gusting 4 16.1
2015-Mar-31 15:37 304 4 gusting 4 16.1
2015-Mar-31 15:27 338 2 gusting 6 16.1
2015-Mar-31 15:17 292 6 gusting 6 16.7
2015-Mar-31 15:07 292 2 gusting 2 16.7
2015-Mar-31 14:57 248 2 gusting 5 17.2
2015-Mar-31 14:47 263 2 gusting 5 17.8
2015-Mar-31 14:37 292 3 gusting 5 18.3
2015-Mar-31 14:27 180 19.4
2015-Mar-31 14:17 068 1 gusting 2 19.4
2015-Mar-31 14:07 068 0 gusting 2 19.4
2015-Mar-31 13:57 068 1 gusting 2 19.4
2015-Mar-31 13:47 068 2 gusting 2 19.4
2015-Mar-31 13:37 112 0 gusting 4 19.4
2015-Mar-31 13:27 068 2 gusting 4 19.4
2015-Mar-31 13:17 068 1 gusting 2 19.4
2015-Mar-31 13:07 19.4
2015-Mar-31 12:57 068 1 gusting 4 19.4
2015-Mar-31 12:47 068 3 gusting 4 19.4
2015-Mar-31 12:37 068 1 gusting 5 19.4
2015-Mar-31 12:27 068 3 gusting 4 19.4
2015-Mar-31 12:17 068 2 gusting 2 20.0
2015-Mar-31 12:07 090 1 gusting 4 19.4
2015-Mar-31 11:57 045 1 gusting 4 19.4
2015-Mar-31 11:47 062 1 gusting 4 19.4
2015-Mar-31 11:37 045 2 gusting 2 19.4
2015-Mar-31 11:27 045 0 gusting 1 19.4
2015-Mar-31 11:17 066 1 gusting 4 19.4
2015-Mar-31 11:07 112 2 gusting 2 18.9
2015-Mar-31 10:57 068 1 gusting 1 18.9
2015-Mar-31 10:47 085 2 gusting 2 18.9
2015-Mar-31 10:37 068 1 gusting 1 18.9
2015-Mar-31 10:27 045 1 gusting 4 18.9
2015-Mar-31 10:17 068 2 gusting 2 18.9
2015-Mar-31 10:07 088 1 gusting 2 18.9
2015-Mar-31 09:57 090 0 gusting 2 18.9
2015-Mar-31 09:47 108 18.9
2015-Mar-31 09:37 043 0 gusting 4 18.9
2015-Mar-31 09:27 068 4 gusting 4 18.3
2015-Mar-31 09:17 129 18.3
2015-Mar-31 09:07 066 0 gusting 2 18.3
2015-Mar-31 08:57 292 1 gusting 2 17.8
2015-Mar-31 08:47 205 1 gusting 2 17.8
2015-Mar-31 08:37 202 2 gusting 2 17.8
2015-Mar-31 08:27 270 1 gusting 6 17.8
2015-Mar-31 08:17 265 0 gusting 6 17.2
2015-Mar-31 08:07 221 6 gusting 8 17.2
2015-Mar-31 07:57 225 4 gusting 6 17.2
2015-Mar-31 07:47 248 4 gusting 8 16.7
2015-Mar-31 07:37 244 7 gusting 8 16.7
2015-Mar-31 07:27 225 6 gusting 10 16.7
2015-Mar-31 07:17 225 6 gusting 10 16.1
2015-Mar-31 07:07 233 5 gusting 8 16.1
2015-Mar-31 06:57 270 5 gusting 6 15.6
2015-Mar-31 06:47 246 1 gusting 6 15.6
2015-Mar-31 06:37 229 6 gusting 6 15.6
2015-Mar-31 06:27 225 5 gusting 6 15.6
2015-Mar-31 06:17 225 4 gusting 6 15.6
2015-Mar-31 06:07 220 4 gusting 6 15.0
2015-Mar-31 05:57 248 4 gusting 6 15.0
2015-Mar-31 05:47 225 5 gusting 8 15.0
2015-Mar-31 05:37 225 6 gusting 8 14.4
2015-Mar-31 05:27 202 4 gusting 6 14.4
2015-Mar-31 05:17 268 6 gusting 8 14.4
2015-Mar-31 05:07 198 5 gusting 8 14.4
2015-Mar-31 04:57 202 6 gusting 8 14.4
2015-Mar-31 04:47 202 7 gusting 8 14.4
2015-Mar-31 04:37 202 8 gusting 8 14.4
2015-Mar-31 04:27 225 6 gusting 8 13.9
2015-Mar-31 04:17 246 6 gusting 8 13.9
2015-Mar-31 04:07 202 6 gusting 7 13.9
2015-Mar-31 03:57 225 7 gusting 8 13.9
2015-Mar-31 03:47 225 4 gusting 6 13.9
2015-Mar-31 03:37 225 6 gusting 6 13.9
2015-Mar-31 03:27 248 6 gusting 7 13.9
2015-Mar-31 03:17 202 5 gusting 11 14.4
2015-Mar-31 03:07 225 6 gusting 8 14.4
2015-Mar-31 02:57 225 8 gusting 10 14.4
2015-Mar-31 02:47 225 7 gusting 7 14.4
2015-Mar-31 02:37 218 6 gusting 6 14.4
2015-Mar-31 02:27 225 5 gusting 6 14.4
2015-Mar-31 02:17 225 4 gusting 6 14.4
2015-Mar-31 02:07 209 6 gusting 7 14.4
2015-Mar-31 01:57 225 8 gusting 10 14.4
2015-Mar-31 01:47 248 4 gusting 6 14.4
2015-Mar-31 01:37 217 6 gusting 7 14.4
2015-Mar-31 01:27 202 7 gusting 7 14.4
2015-Mar-31 01:17 202 6 gusting 8 14.4
2015-Mar-31 01:07 248 4 gusting 5 14.4
2015-Mar-31 00:57 292 4 gusting 7 14.4
2015-Mar-31 00:47 225 5 gusting 6 14.4
2015-Mar-31 00:37 270 4 gusting 6 14.4
2015-Mar-31 00:27 202 4 gusting 6 14.4
2015-Mar-31 00:17 225 5 gusting 13 15.0
2015-Mar-31 00:07 248 6 gusting 6 15.0
2015-Mar-30 23:57 248 7 gusting 7 15.0
2015-Mar-30 23:47 248 6 gusting 13 15.0
2015-Mar-30 23:37 225 7 gusting 8 15.0
2015-Mar-30 23:27 248 10 gusting 11 15.0
2015-Mar-30 23:17 225 6 gusting 6 15.6
2015-Mar-30 23:07 270 4 gusting 14 15.6
2015-Mar-30 22:57 225 7 gusting 11 15.6
2015-Mar-30 22:47 225 10 gusting 14 15.6
2015-Mar-30 22:37 233 12 gusting 13 15.6
2015-Mar-30 22:27 248 12 gusting 18 15.6
2015-Mar-30 22:17 225 11 gusting 17 16.1
2015-Mar-30 22:06 228 17 gusting 19 16.1
2015-Mar-30 21:57 225 10 gusting 17 16.1
2015-Mar-30 21:47 217 14 gusting 25 16.1
2015-Mar-30 21:37 225 17 gusting 20 15.6
2015-Mar-30 21:27 248 13 gusting 18 15.6
2015-Mar-30 21:17 180 13 gusting 15 15.6
2015-Mar-30 21:07 248 14 gusting 21 15.6
2015-Mar-30 20:57 225 13 gusting 21 15.6
2015-Mar-30 20:47 248 17 gusting 18 15.6
2015-Mar-30 20:37 226 13 gusting 18 15.6
2015-Mar-30 20:27 225 12 gusting 20 15.6
2015-Mar-30 20:17 225 13 gusting 18 15.6
2015-Mar-30 20:07 225 18 gusting 19 15.6
2015-Mar-30 19:57 202 16 gusting 17 15.6
2015-Mar-30 19:47 225 15 gusting 17 15.6
2015-Mar-30 19:37 225 14 gusting 19 15.6
2015-Mar-30 19:27 270 13 gusting 19 15.6
2015-Mar-30 19:17 225 17 gusting 19 15.6
2015-Mar-30 19:07 202 14 gusting 18 15.0
2015-Mar-30 18:57 225 13 gusting 18 15.0
2015-Mar-30 18:47 225 13 gusting 15 15.0
2015-Mar-30 18:37 252 9 gusting 17 15.0
2015-Mar-30 18:27 202 9 gusting 14 15.0
2015-Mar-30 18:17 248 10 gusting 13 15.0
2015-Mar-30 18:07 236 13 gusting 13 15.0
2015-Mar-30 17:57 270 9 gusting 14 15.0
2015-Mar-30 17:47 225 14 gusting 17 15.0
2015-Mar-30 17:37 248 12 gusting 13 15.0
2015-Mar-30 17:27 270 5 gusting 14 15.0
2015-Mar-30 17:17 225 13 gusting 14 15.0
2015-Mar-30 17:07 225 10 gusting 12 15.6
2015-Mar-30 16:57 248 11 gusting 13 15.6
2015-Mar-30 16:47 248 6 gusting 8 16.1
2015-Mar-30 16:37 273 8 gusting 10 16.7
2015-Mar-30 16:27 248 6 gusting 13 17.2
2015-Mar-30 16:17 248 9 gusting 13 17.2
2015-Mar-30 16:07 318 6 gusting 8 17.2
2015-Mar-30 15:57 248 8 gusting 11 17.2
2015-Mar-30 15:47 270 5 gusting 10 17.2
2015-Mar-30 15:37 225 10 gusting 17 17.2
2015-Mar-30 15:27 248 6 gusting 11 16.7
2015-Mar-30 15:17 225 11 gusting 13 16.7
2015-Mar-30 15:07 248 6 gusting 13 16.7
2015-Mar-30 14:57 248 7 gusting 12 16.7
2015-Mar-30 14:47 225 7 gusting 11 16.7
2015-Mar-30 14:37 297 8 gusting 11 16.7
2015-Mar-30 14:27 270 8 gusting 11 16.7
2015-Mar-30 14:17 270 6 gusting 11 16.7
2015-Mar-30 14:07 305 11 gusting 19 16.7